BRITE-CA1 (TORONTO)

Last updated on Tue Sep 22 2026 00:03:48 GMT+0000 (Coordinated Universal Time)

1 40020U 14033L 26264.58198336 .00000377 00000+0 64366-4 0 9995 2 40020 97.9865 31.8062 0077653 329.1926 30.4736 14.72819308656409
UTC large
Height (km)
Speed (km/s)
/
Latitude / Longitude
Inclination (degrees)
Orbital Period (minutes)
Azimuth
Elevation
Range (km)
Doppler Factor

Next 0 passes for location: London (51.5072 / 0.1276)

No passes found over London.
BRITE-CA1 (TORONTO)